sat.trackr.live / text

‹ back to catalog

STARLINK-11590 [DTC]

NORAD 63112 · 2025-039J

PAYLOAD ACTIVE UNKNOWN

§ Identity

Operator
Country
US
Launch date
2025-02-27
Launch site
AFETR
Launch vehicle
Mass (kg)
RCS (m²)

Purposes: comms

External: N2YO · Heavens-Above · Gunter

§ Orbital elements

Epoch: 2026-05-24T08:57:35.488224Z

Period
91.67 min
Inclination
42.9979°
Eccentricity
0.0000068
Mean motion
15.70837267 rev/d
Perigee alt
356.5 km
Apogee alt
356.5 km
Semi-major
6,734.6 km
B*
1.0257e-3
RAAN
141.0866°
Arg perigee
57.7412°
Mean anomaly
302.3462°
Rev number
7,151

§ Raw data

STARLINK-11590 [DTC]1 63112U 25039J   26144.37332741  .00133275  00000+0  10257-2 0  99962 63112  42.9979 141.0866 0000068  57.7412 302.3462 15.70837267 71511

JSON: /api/v1/satellites/63112 · /tle

For live sub-satellite position, see the globe view (requires WebGL).

§ Visibility from observer

Set your observer location to see the next 7 days of passes ≥ 10°. The values pass through the URL so the page stays shareable.

No JS? Fill the form by hand. The geolocation button needs JavaScript.